Location: Chauss�e de Keller
(48.4798°N, 5.1167°W)
Time: 08:39:57
(UTC+00:00)

Daily predictions for brighter satellites

Satellite Brightness Start Highest point End
(mag) Time Altitude Azimuth Time Altitude Azimuth Time Altitude Azimuth
STARLINK-1112 3.9 20:50:24 10° WNW 20:54:33 68° NNE 20:58:41 10° ESE
H-2A R/B 4.3 20:50:44 10° SW 20:54:43 23° W 20:58:48 10° NW
CZ-2C R/B 4.1 20:51:00 10° N 20:55:29 68° WNW 21:00:00 10° SSW
STARLINK-1143 3.6 20:51:26 10° WSW 20:55:35 80° SSE 20:59:44 10° ENE
STARLINK-1124 4.3 20:53:14 10° WNW 20:57:12 45° SW 21:01:09 10° SE
Resurs 1-3 4.5 20:55:08 10° S 20:59:23 50° W 21:03:41 10° NNW
STARLINK-1128 3.8 20:55:23 10° WNW 20:59:33 71° NNE 21:03:40 10° ESE
STARLINK-1241 3.6 20:56:27 10° WSW 21:00:36 85° SSE 21:04:45 10° ENE
STARLINK-1122 4.4 20:58:14 10° WNW 21:02:09 42° SW 21:06:03 10° SSE
Cosmos 1300 Rocket 3.7 20:59:17 10° N 21:03:46 82° W 21:08:12 10° S
STARLINK-1113 3.8 21:00:23 10° WNW 21:04:32 75° NNE 21:08:41 10° ESE
Aureole 2 Rocket 2.9 21:01:51 10° S 21:04:39 31° ESE 21:07:22 10° NE
STARLINK-1239 3.6 21:01:24 10° WSW 21:05:33 89° SSE 21:09:43 10° ENE
STARLINK-1126 4.5 21:03:16 10° WNW 21:07:09 39° SW 21:11:01 10° SSE
Meteor 1-4 Rocket 4.4 21:05:39 10° SW 21:08:47 32° WNW 21:11:58 10° N
STARLINK-1119 3.7 21:05:23 10° WNW 21:09:33 78° NNE 21:13:42 10° ESE
Cosmos 1437 Rocket 2.8 21:06:09 10° S 21:09:51 57° E 21:13:38 10° NNE
STARLINK-1240 3.7 21:06:22 10° WSW 21:10:31 86° NNW 21:14:41 10° ENE
ISS -2.0 21:11:31 10° W 21:14:14 23° SW 21:16:56 10° SSE
STARLINK-1114 3.7 21:10:21 10° WNW 21:14:30 82° NNE 21:18:39 10° ESE
STARLINK-1203 3.8 21:11:11 10° WSW 21:15:24 82° NNW 21:19:37 10° ENE
STARLINK-1216 3.7 21:11:21 10° WSW 21:15:30 82° NNW 21:19:39 10° ENE
Meteor 1-15 Rocket 4.5 21:10:00 10° N 21:15:55 67° ENE 21:21:47 10° SSE
Cosmos 304 Rocket 3.9 21:11:39 10° S 21:16:16 53° ESE 21:20:58 10° NNE
Lacrosse 5 3.0 21:12:45 10° WNW 21:17:18 34° SW 21:21:50 10° SSE
NOSS 8 (E) 4.0 21:14:12 10° SW 21:17:25 75° SE 21:20:28 10° NE
USA 215 4.4 21:12:11 10° ENE 21:18:17 43° N 21:24:22 10° WNW
STARLINK-1130 (DARKSAT) 3.6 21:15:20 10° WNW 21:19:30 87° NNE 21:23:36 10° ESE
STARLINK-1237 3.8 21:16:20 10° WSW 21:20:29 78° NNW 21:24:38 10° ENE
NOSS 2-2 (D) 3.9 21:17:32 10° S 21:20:43 31° ESE 21:24:10 10° ENE
CENTAUR R/B 3.9 21:14:08 10° NW 21:21:34 47° NE 21:29:49 10° ESE
CZ-2C R/B 3.9 21:18:17 10° N 21:23:40 48° WNW 21:29:01 10° SW
STARLINK-1084 3.6 21:20:19 10° WNW 21:24:29 89° SSW 21:28:24 11° ESE
ATLAS 3B R/B 4.2 21:18:42 10° NW 21:24:29 29° NNE 21:30:23 10° E
Cosmos 1674 Rocket 3.5 21:20:42 10° S 21:25:02 73° E 21:29:28 10° NNE
STARLINK-1202 3.9 21:21:19 10° WSW 21:25:28 74° NNW 21:29:37 10° ENE
SL-27 R/B 4.3 21:23:56 10° N 21:26:44 21° ENE 21:29:28 10° ESE
Cosmos 1378 Rocket 3.6 21:23:36 10° S 21:27:56 60° E 21:32:16 10° NNE
STARLINK-1098 3.6 21:25:18 10° WNW 21:29:28 85° SSW 21:33:11 13° ESE
Cosmos 1766 4.1 21:26:05 10° N 21:29:49 36° ENE 21:32:47 14° SE
STARLINK-1123 3.6 21:30:16 10° WNW 21:34:25 80° SSW 21:37:56 14° ESE
Cosmos 1833 Rocket 4.4 21:30:24 10° NW 21:35:03 27° WSW 21:39:40 10° SSW
STARLINK-1246 4.0 21:31:20 10° WSW 21:35:28 68° NNW 21:39:36 10° ENE
IGS 5A 3.6 21:31:57 10° S 21:36:05 75° WSW 21:40:15 10° NNW
Cosmos 2297 3.7 21:31:25 10° SSW 21:37:04 74° ESE 21:42:48 10° NNE
Cosmos 1943 Rocket 2.8 21:32:08 10° S 21:37:07 35° ESE 21:42:08 10° NE
NOSS 2-2 (E) 3.2 21:34:22 10° SSW 21:37:53 58° SE 21:41:53 10° NE
STARLINK-1097 3.6 21:35:16 10° WNW 21:39:25 75° SSW 21:42:45 15° SE
STARLINK-1224 4.1 21:36:19 10° WSW 21:40:26 65° NNW 21:44:35 10° ENE
Cosmos 332 Rocket 4.3 21:35:50 10° SSW 21:40:42 65° WNW 21:45:36 10° NNE
Landsat 7 4.1 21:36:43 10° S 21:41:28 70° WSW 21:46:14 10° NNW
Cosmos 2082 Rocket 3.3 21:36:48 10° NW 21:42:03 38° WSW 21:47:15 10° S
Cosmos 1452 Rocket 4.4 21:37:00 10° SW 21:42:10 53° WNW 21:47:22 10° NNE
SeaSat 1 4.4 21:42:35 10° E 21:43:40 11° E 21:44:34 10° ESE
STARLINK-1099 3.6 21:40:15 10° WNW 21:44:23 71° SSW 21:47:31 17° SE
SAR-Lupe-2 3.7 21:41:20 10° N 21:44:57 77° WNW 21:48:32 10° SSW
Cosmos 1461 3.1 21:40:50 10° SW 21:45:00 75° NW 21:49:25 10° NE
STARLINK-1225 4.2 21:41:20 10° W 21:45:27 62° NNW 21:49:35 10° ENE
STARLINK-1212 4.2 21:44:02 10° WNW 21:46:59 38° N 21:49:56 10° E
STARLINK-1105 4.2 21:44:31 10° WNW 21:47:27 38° N 21:50:23 10° E
Cosmos 1975 Rocket 3.9 21:44:36 16° SSE 21:47:33 35° E 21:51:33 10° NNE
CZ-4B DEB 4.5 21:45:24 15° S 21:48:03 75° WSW 21:51:25 10° NNW
STARLINK-1247 4.2 21:45:23 10° WNW 21:48:21 38° N 21:51:19 10° E
Meteor 1-23 Rocket 4.2 21:42:49 10° S 21:48:32 89° E 21:54:11 10° NNE
STARLINK-1227 4.2 21:45:53 10° WNW 21:48:50 38° N 21:51:46 10° E
BREEZE-M DEB (TANK) 4.2 21:29:17 10° SW 21:49:11 66° SSE 21:53:49 10° ENE
STARLINK-1104 3.7 21:45:13 10° WNW 21:49:21 66° SSW 21:52:17 18° SE
STARLINK-1226 4.2 21:46:44 10° WNW 21:49:42 38° N 21:52:39 10° E
BREEZE-M DEB (TANK) 3.1 21:45:27 10° W 21:50:24 79° N 21:53:52 10° E
STARLINK-1230 4.2 21:46:20 10° W 21:50:25 60° NNW 21:54:33 10° ENE
STARLINK-1215 4.2 21:47:39 10° WNW 21:50:37 39° N 21:53:34 10° E
STARLINK-1217 4.2 21:49:27 10° WNW 21:52:25 39° N 21:55:24 10° E
Cosmos 2369 Rocket 2.9 21:49:04 14° SSE 21:53:18 34° ESE 21:58:21 10° NE
STARLINK-1229 4.2 21:50:22 10° WNW 21:53:21 39° NNE 21:56:19 10° E
STARLINK-1270 4.2 21:51:15 10° WNW 21:54:14 39° N 21:57:13 10° E
STARLINK-1144 3.7 21:50:13 10° WNW 21:54:19 62° SSW 21:57:05 20° SE
STARLINK-1243 4.3 21:51:21 10° W 21:55:26 57° NNW 21:59:33 10° ENE
STARLINK-1189 4.1 21:53:03 10° WNW 21:56:02 40° NNE 21:59:01 10° E
STARLINK-1188 4.1 21:53:58 10° WNW 21:56:57 40° NNE 21:59:56 10° E
SPOT 5 3.1 21:53:31 16° SSE 21:57:51 88° ENE 22:03:15 10° NNW
STARLINK-1187 4.0 21:55:05 10° WNW 21:58:03 42° NNE 22:01:02 10° E
ATLAS CENTAUR R/B 3.6 21:59:35 10° ESE 21:59:35 10° ESE 21:59:52 10° E
STARLINK-1103 3.8 21:55:12 10° WNW 21:59:16 57° SSW 22:01:51 21° SE
STARLINK-1191 4.1 21:56:24 10° WNW 21:59:23 41° NNE 22:02:21 10° E
STARLINK-1221 4.1 21:57:22 10° WNW 22:00:21 41° NNE 22:03:19 10° E
STARLINK-1236 4.4 21:56:20 10° W 22:00:25 55° NNW 22:04:31 10° ENE
STARLINK-1222 4.0 21:58:13 10° WNW 22:01:12 41° NNE 22:04:10 10° E
STARLINK-1214 4.0 21:59:07 10° WNW 22:02:06 41° NNE 22:05:05 10° E
NOSS 2-2 (C) 3.0 21:58:55 10° SW 22:02:28 80° SE 22:06:31 10° NE
EXPRESS MD2 3.6 21:59:55 10° WSW 22:03:18 75° SSE 22:10:02 10° ENE
ERS-1 Rocket 3.1 21:59:40 15° S 22:03:50 72° WSW 22:08:54 10° NNW
STARLINK-1101 3.9 22:00:11 10° WNW 22:04:14 53° SW 22:06:38 22° SE
Okean 2 3.6 22:02:00 19° SSE 22:04:48 56° E 22:08:54 10° NNE
Meteor 1-22 Rocket 4.3 21:58:52 10° N 22:04:49 78° ENE 22:09:05 18° SSE
Cosmos 2026 Rocket 4.3 22:00:23 16° SSE 22:05:14 53° E 22:11:24 10° NNE
BREEZE M DEB (TANK) 2.2 22:01:19 10° WSW 22:06:02 69° SSE 22:08:16 10° E
ATLAS 2AS CENTAUR R/B 3.7 22:00:30 14° SSE 22:06:20 33° ESE 22:13:12 10° NE
STARLINK-1228 3.8 22:04:33 10° WNW 22:07:58 54° NNE 22:11:08 12° E
NOSS 3-2 (A) 4.1 22:01:07 10° NW 22:08:35 86° SW 22:15:11 18° SE
Cosmos 1953 4.4 22:06:03 10° NNE 22:08:37 16° ENE 22:10:41 12° E
OPS 6432 4.5 22:05:49 10° NW 22:08:59 71° SW 22:11:05 24° SSE
STARLINK-1102 4.0 22:05:11 10° WNW 22:09:12 50° SW 22:11:26 24° SSE
Cosmos 1805 3.4 22:05:48 10° NNW 22:09:43 70° W 22:12:24 19° S
Cosmos 1470 3.8 22:06:28 10° N 22:09:58 31° ENE 22:11:51 20° ESE
STARLINK-1235 3.7 22:07:17 10° WNW 22:10:28 51° NNE 22:13:12 13° E
Okean 1 Rocket 4.0 22:07:00 10° NNW 22:11:17 45° W 22:15:06 12° SSW
Resurs 01 Rocket 4.2 22:09:19 10° SW 22:11:55 15° W 22:14:31 10° NW
Cosmos 968 Rocket 4.0 22:09:08 10° NNW 22:14:09 49° ENE 22:17:31 20° SE
STARLINK-1111 4.1 22:10:11 10° WNW 22:14:09 46° SW 22:16:12 25° SSE
Cosmos 1455 Rocket 3.1 22:12:39 10° N 22:16:58 63° ENE 22:19:25 25° SSE
STARLINK-1073 4.2 22:15:11 10° WNW 22:19:08 43° SW 22:20:59 26° SSE
Nadezhda 4 Rocket 4.4 22:14:20 10° SSW 22:20:24 62° WNW 22:26:29 10° N
USA 238 DEB 3.9 22:13:18 10° NW 22:20:29 76° SW 22:25:51 20° SSE
ATLAS 5 CENTAUR R/B 3.3 22:21:46 18° ESE 22:21:46 18° ESE 22:22:59 10° E
USA 238 3.9 22:13:24 10° NW 22:20:36 77° SW 22:25:58 20° SSE
SL-8 R/B 4.2 22:17:18 10° W 22:21:51 43° SSW 22:24:13 25° SSE
Abrixas rocket 3.6 22:21:06 10° W 22:23:18 19° SSW 22:23:18 19° SSW
Cosmos 1758 4.1 22:19:40 10° N 22:23:31 39° ENE 22:25:25 24° SE
STARLINK-1121 4.3 22:20:11 10° WNW 22:24:05 40° SW 22:25:46 27° SSE
SL-4 R/B 2.8 22:20:04 10° SSW 22:24:28 38° SE 22:28:58 10° ENE
Cosmos 1842 3.2 22:24:08 25° S 22:26:19 74° E 22:30:13 10° NNE
Terra 2.0 22:23:14 21° S 22:26:26 70° WSW 22:31:12 10° NNW
STARLINK-1234 3.3 22:25:01 10° WNW 22:28:17 64° NNE 22:30:16 21° E
STARLINK-1106 4.4 22:25:13 10° WNW 22:29:03 37° SW 22:30:34 27° S
STARLINK-1112 4.5 22:30:12 10° WNW 22:33:58 34° SW 22:35:19 27° S
Cosmos 1503 Rocket 4.5 22:29:07 10° NNW 22:34:19 53° ENE 22:37:35 22° SE
STARLINK-1209 3.1 22:31:12 10° WNW 22:34:29 72° NNE 22:36:13 26° ESE
Cosmos 1733 4.1 22:38:50 10° NNW 22:42:28 43° W 22:44:30 22° SSW
Cosmos 2263 4.2 22:39:18 21° S 22:43:01 59° ESE 22:48:33 10° NE
Cosmos 1536 Rocket 4.1 22:45:43 30° SE 22:47:19 43° E 22:51:27 10° NNE
STARLINK-1201 4.5 22:44:29 10° WNW 22:48:32 50° NNE 22:52:34 10° E
MTI 4.4 22:46:59 10° N 22:50:02 50° WNW 22:51:36 25° SW
JB-3 4.4 22:46:13 10° NNE 22:50:24 88° E 22:52:30 28° SSW
Cosmos 1271 Rocket 2.8 22:49:29 36° SSE 22:50:53 62° E 22:54:46 10° NNE
Cosmos 1242 Rocket 2.5 22:49:25 33° S 22:50:58 90° WNW 22:54:41 10° NNE
STARLINK-60 2.8 22:52:21 42° SSW 22:53:09 59° SSE 22:56:19 10° ENE
STARLINK-1206 4.4 22:49:29 10° WNW 22:53:32 51° NNE 22:57:36 10° E
Cosmos 1354 Rocket 4.2 22:48:24 10° NNW 22:53:42 67° ENE 22:56:35 27° SE
Cosmos 1544 Rocket 3.6 22:49:26 10° NNW 22:53:46 76° W 22:55:47 31° S
Meteor 1-21 4.2 22:50:09 21° S 22:53:59 90° NE 22:59:38 10° NNE
COSMOS 2455 3.5 22:52:50 26° SSE 22:55:11 36° ESE 23:00:38 10° NE
Cosmos 1486 Rocket 4.2 22:50:32 10° NNW 22:55:48 64° WSW 22:58:32 28° S
Cosmos 1302 Rocket 4.4 22:50:35 10° SW 22:55:50 63° WNW 23:01:07 10° NNE
Spot 4 4.1 22:53:29 28° SE 22:55:55 63° ENE 23:00:44 10° N
Cosmos 1833 4.2 22:52:25 10° NNW 22:58:06 88° ENE 23:01:10 28° SSE
STARLINK-1205 4.4 22:54:28 10° WNW 22:58:31 52° NNE 23:02:35 10° E
Cosmos 2297 Rocket 4.5 22:56:14 10° N 23:00:09 19° NE 23:04:02 10° E
USA 215 3.6 22:54:16 10° ESE 23:00:45 65° NNE 23:07:14 10° NW
Cosmos 1707 2.8 22:59:44 39° SSE 23:00:58 64° E 23:04:50 10° NNE
SL-27 R/B 3.6 22:58:40 10° NW 23:01:56 33° WSW 23:03:01 27° SW
STARLINK-1218 4.3 22:59:28 10° WNW 23:03:32 54° NNE 23:07:37 10° E
Cosmos 1174 4.4 23:06:36 29° ESE 23:06:36 29° ESE 23:09:29 10° NE
Cosmos 1726 2.5 23:02:38 10° N 23:06:18 52° ENE 23:07:20 38° SE
STARLINK-1254 4.2 23:04:26 10° WNW 23:08:32 56° NNE 23:12:37 10° E
COSMOS 2487 2.9 23:06:15 10° NNW 23:09:39 52° ENE 23:10:32 39° ESE
ALOS 2 3.4 23:07:47 26° ESE 23:09:43 42° ENE 23:13:52 10° N
CENTAUR R/B 3.3 23:04:52 10° NW 23:12:50 68° SW 23:18:17 26° SSE
STARLINK-1231 4.2 23:09:25 10° WNW 23:13:30 58° NNE 23:17:27 11° E
Meteor 1-16 Rocket 4.3 23:09:42 10° N 23:15:12 65° ENE 23:17:49 31° SSE
Cosmos 1867 3.5 23:10:38 10° NW 23:16:07 79° SW 23:18:45 32° SSE
ATLAS 3B R/B 2.8 23:09:24 10° NW 23:16:13 76° NE 23:21:09 21° SE
EO 1 Del DPAF 3.1 23:14:26 10° NNE 23:18:14 86° WNW 23:19:30 41° SSW
NOSS 3-2 (C) 4.3 23:10:52 10° NW 23:18:14 57° WSW 23:23:02 26° S
STARLINK-1232 4.1 23:14:25 10° WNW 23:18:32 60° NNE 23:22:15 12° E
Cosmos 1992 Rocket 3.9 23:16:14 26° SSW 23:19:13 88° ESE 23:24:28 10° NNE
Cosmos 1943 Rocket 3.2 23:15:28 10° SW 23:20:45 44° NW 23:26:07 10° NNE
SeaSat 1 2.4 23:17:02 10° NNE 23:21:59 70° ESE 23:24:20 31° SSW
STARLINK-1212 2.7 23:19:52 10° WNW 23:22:54 69° SW 23:22:54 69° SW
STARLINK-29 3.8 23:24:02 36° E 23:24:02 36° E 23:26:13 10° ENE
STARLINK-1105 2.8 23:20:21 10° WNW 23:23:20 68° SW 23:23:20 68° SW
STARLINK-1208 4.0 23:19:22 10° WNW 23:23:30 63° NNE 23:27:00 14° E
STARLINK-1247 2.8 23:21:13 10° WNW 23:24:13 67° SW 23:24:13 67° SW
STARLINK-1227 2.8 23:21:42 10° WNW 23:24:39 66° SW 23:24:39 66° SW
STARLINK-1226 2.8 23:22:34 10° WNW 23:25:31 65° SW 23:25:31 65° SW
ATLAS CENTAUR R/B 3.4 23:24:55 10° NNW 23:26:23 17° NNE 23:28:17 10° ENE
STARLINK-1215 2.9 23:23:28 10° WNW 23:26:23 63° SW 23:26:23 63° SW
NOSS 3-4 (A) 3.3 23:23:52 18° SSW 23:28:22 79° SE 23:34:46 10° NE
STARLINK-1217 3.0 23:25:17 10° WNW 23:28:07 60° WSW 23:28:07 60° WSW
NOSS 3-4 (C) 3.3 23:24:01 19° SSW 23:28:28 78° SE 23:34:52 10° NE
STARLINK-1271 3.9 23:24:23 10° WNW 23:28:31 66° NNE 23:31:49 15° E
STARLINK-1229 3.0 23:26:12 10° WNW 23:29:01 58° WSW 23:29:01 58° WSW
RESURS DK-1 3.5 23:29:48 27° ESE 23:29:58 28° ESE 23:33:31 10° NE
STARLINK-1270 3.0 23:27:05 10° WNW 23:29:53 57° WSW 23:29:53 57° WSW
STARLINK-1189 3.1 23:28:53 10° WNW 23:31:36 54° WSW 23:31:36 54° WSW
Meteor 2-10 4.0 23:27:35 10° NNW 23:32:36 68° W 23:34:44 34° S
STARLINK-1188 3.2 23:29:48 10° WNW 23:32:29 52° WSW 23:32:29 52° WSW
STARLINK-1154 3.9 23:29:21 10° WNW 23:33:30 69° NNE 23:36:35 17° ESE
Cosmos 2315 Rocket 4.1 23:27:34 10° N 23:33:46 66° ENE 23:36:59 29° SSE
STARLINK-1187 3.5 23:30:56 10° WNW 23:33:23 43° WSW 23:33:23 43° WSW
STARLINK-1191 3.3 23:32:15 10° WNW 23:34:47 47° WSW 23:34:47 47° WSW
STARLINK-1221 3.4 23:33:12 10° WNW 23:35:42 46° WSW 23:35:42 46° WSW
Cosmos 1626 4.0 23:36:00 17° E 23:36:31 18° E 23:39:05 10° NE
Cosmos 1340 Rocket 2.8 23:32:55 10° NNW 23:37:00 75° W 23:38:06 46° S
STARLINK-1222 3.4 23:34:03 10° WNW 23:36:31 44° WSW 23:36:31 44° WSW
Cosmos 2369 Rocket 3.2 23:31:46 10° SW 23:37:12 45° NW 23:42:38 10° NNE
ATLAS CENTAUR R/B 1.3 23:35:42 38° SSW 23:37:17 77° SE 23:41:25 10° NE
Cosmos 2227 Rocket 4.0 23:32:45 10° NNW 23:37:29 26° NE 23:42:12 10° ESE
STARLINK-1214 3.5 23:34:57 10° WNW 23:37:23 43° WSW 23:37:23 43° WSW
STARLINK-1197 3.8 23:34:19 10° WNW 23:38:28 72° NNE 23:41:21 19° ESE
S3M 4.2 23:33:30 10° NNW 23:39:35 62° W 23:42:52 28° SSW
Cosmos 1908 3.4 23:37:49 10° N 23:41:36 61° ENE 23:42:29 46° SE
Cosmos 1025 Rocket 3.8 23:39:50 26° SW 23:41:52 46° WNW 23:46:02 10° N
STARLINK-1198 3.7 23:39:17 10° WNW 23:43:27 75° NNE 23:46:07 21° ESE
Aureole 3 2.5 23:41:09 10° N 23:44:24 85° WSW 23:44:31 81° SSW
Thor Agena Rocket 4.1 23:39:16 10° N 23:44:27 56° WNW 23:47:47 21° SW
STARLINK-1228 4.0 23:41:52 10° WNW 23:44:34 36° WSW 23:44:34 36° WSW
Cosmos 1953 2.8 23:41:27 10° NNW 23:45:20 49° W 23:46:22 38° SW
STARLINK-1235 4.2 23:43:42 10° WNW 23:45:48 30° WSW 23:45:48 30° WSW
STARLINK-1199 3.6 23:44:18 10° WNW 23:48:27 79° NNE 23:50:55 24° ESE
SL-4 R/B 2.6 23:50:08 27° NW 23:50:08 27° NW 23:51:21 10° NNW
Cosmos 1656 Rocket 4.0 23:46:09 19° SW 23:50:15 64° WNW 23:55:48 10° NNE
Nimbus 7 Rocket 4.4 23:44:45 10° NNE 23:50:53 87° ESE 23:54:03 30° SSW
Meteor 2-19 Rocket 4.5 23:47:40 29° SSW 23:50:59 80° W 23:57:08 10° N
KORONAS-FOTON 3.8 23:52:25 53° SSE 23:53:07 68° E 23:56:57 10° NNE
STARLINK-1210 3.6 23:49:16 10° WNW 23:53:26 83° NNE 23:55:41 26° ESE
